STARLINK-1276, 45368

Orbit data source: Space-Track

STARLINK-1276, 45368 is a payload satellite owned by SpaceX/Seattle (US) in LEO that was launched on Wed, 18 Mar 2020 UTC via an FALCON 9 launch vehicle from the Air Force Eastern Test Range (AFETR). Payloads include a variety of satellites, spacecraft, and rockets equipped with specific instruments for various scientific and technological missions. These include communications satellites like Starlink; space stations such as the ISS; scientific satellites like the Hubble; Earth observation satellites from companies like Planet Labs, Umbra, and HawkEye 360; GPS; miniature CubeSats for education and research; and military/defense satellites.

Loading next visibility...
STARLINK-1276 details
Identifier
45368, 2020-019J
Orbit
LEO
Last TLE update14 hours ago
Origin
Flag of USSpaceX/Seattle (US)
ManufacturerSpaceX/Seattle
MissionOperational Commercial Communications
Bus & MotorSTARLINK, Unknown motor
Mass260 kg wet, ~248 kg dry
Launch date (UTC)
2020-03-18 (5 years ago)
Launch vehicle
FALCON 9
Launch site
Air Force Eastern Test Range (AFETR)
Object type
Payload
Rocket body
Debris
Shape & HBRBox + 1 Pan, 8.86 m
Radar Cross Section13.562 m², Large (>1 m²)

Expand to show TLE details & history

TLE from 14 hours ago
0 STARLINK-1276
1 45368U 20019J   24336.71595733  .00005413  00000-0  38217-3 0  9993
2 45368  53.0543  84.9861 0001258  77.6382 282.4747 15.06382011259954
Epoch: 2024-12-01T17:10Z
Definitive object data (Epoch: 2024-12-01T17:10:58.713Z)
Latitude-0.00007°
Longitude116.19123°
Altitude547.958 km
Speed7.589 km/s
True Right ascension05h 39m 56s
True Declination0° 00' 00"
Sunlit
Object was in full shadow at TLE epoch
Visualization TLE readout
Latitude-21.07952°
Longitude96.7756°
Altitude553.381 km
Speed7.585 km/s
Apparent Right ascension02h 18m 05s
Apparent Declination-73° 21' 49"
Sunlit
Object is in full shadow
Visualization observer readout
Local Sidereal Time05:09:50
Azimuth192.644° SSW
Elevation-27.004°
Doppler factor1
Orbital elements
Apogee altitude548.409 km
Perigee altitude546.666 km
Semi-major axis6,925.674 km
Eccentricity0.0001258
Inclination53.0543°
RAAN84.9861°
Arg. of periapsis77.6382°
True anomaly282.46062°
Mean anomaly282.4747°
Eccentric anomaly282.46766°
Mean motion3.76574 °/min
BSTAR0.00038217
Orbital period95.6 mins
Loading maneuver chart data...
Loading historical data...
Loading historical data...
Loading historical data...
Loading historical data...
Loading historical data...
Loading historical data...
Loading historical data...

STARLINK-1276 Visibility forecast

Observer location: undefined°, undefined

Span
Click to sort rows by Start time (UTC) header in descending order
Start Az.
Max El. time (UTC)
Max El. Az.
Max El.
End time (UTC)
End Az.
6 mins2024-12-02 09:15:46.749Z181.619° SSW2024-12-02 09:18:46.749Z120.265° SE24.552°2024-12-02 09:21:46.749Z72.382° E
5 mins2024-12-02 10:55:46.749Z269.316° W2024-12-02 10:57:46.749Z327.159° NNW34.284°2024-12-02 11:00:46.749Z34.566° NE
5 mins2024-12-02 15:57:46.749Z343.325° N2024-12-02 15:59:46.749Z35.463° NE28.627°2024-12-02 16:02:46.749Z91.544° ESE
6 mins2024-12-02 17:36:46.749Z285.755° WNW2024-12-02 17:38:46.749Z241.77° WSW31.862°2024-12-02 17:42:46.749Z158.624° S
|